Time,TemperatureF,DewpointF,PressureIn,WindDirection,WindDirectionDegrees,WindSpeedMPH,WindSpeedGustMPH,Humidity,HourlyPrecipIn,Conditions,Clouds,dailyrainin,SoftwareType,DateUTC
2013-05-07 00:01:00,56.3,47.0,30.01,SSE,147,0.0,0.0,71,0.00,,,0.00,VWS V13.01,2013-05-07 05:01:00,
2013-05-07 00:06:00,55.7,46.9,30.01,SSE,147,0.0,0.0,72,0.00,,,0.00,VWS V13.01,2013-05-07 05:06:00,
2013-05-07 00:11:00,55.2,46.7,30.01,SSE,147,0.0,0.0,73,0.00,,,0.00,VWS V13.01,2013-05-07 05:11:00,
2013-05-07 00:16:00,55.0,46.9,30.01,SSE,153,0.0,0.0,74,0.00,,,0.00,VWS V13.01,2013-05-07 05:16:00,
2013-05-07 00:20:00,55.0,47.6,30.01,SE,143,0.0,0.0,76,0.00,,,0.00,VWS V13.01,2013-05-07 05:20:00,
2013-05-07 00:25:00,54.8,47.4,30.01,ESE,120,0.0,0.0,76,0.00,,,0.00,VWS V13.01,2013-05-07 05:25:00,
2013-05-07 00:30:00,54.7,47.6,30.01,SSW,196,0.0,0.0,77,0.00,,,0.00,VWS V13.01,2013-05-07 05:30:00,
2013-05-07 00:35:00,54.8,47.8,30.01,SSW,192,0.0,0.0,77,0.00,,,0.00,VWS V13.01,2013-05-07 05:35:00,
2013-05-07 00:40:00,54.8,48.1,30.01,South,177,0.0,0.0,78,0.00,,,0.00,VWS V13.01,2013-05-07 05:40:00,
2013-05-07 00:45:00,54.8,47.8,30.01,South,177,0.0,0.0,77,0.00,,,0.00,VWS V13.01,2013-05-07 05:45:00,
2013-05-07 00:50:00,54.7,47.6,30.01,South,177,0.0,0.0,77,0.00,,,0.00,VWS V13.01,2013-05-07 05:50:00,
2013-05-07 00:55:00,54.3,46.9,30.01,South,177,0.0,0.0,76,0.00,,,0.00,VWS V13.01,2013-05-07 05:55:00,
2013-05-07 01:00:00,54.1,47.1,30.01,South,177,0.0,0.0,77,0.00,,,0.00,VWS V13.01,2013-05-07 06:00:00,
2013-05-07 01:05:00,53.6,47.2,30.01,SW,229,0.0,0.0,79,0.00,,,0.00,VWS V13.01,2013-05-07 06:05:00,
2013-05-07 01:10:00,52.9,46.9,30.01,SSW,210,0.0,0.0,80,0.00,,,0.00,VWS V13.01,2013-05-07 06:10:00,
2013-05-07 01:15:00,52.5,48.8,30.01,SSW,200,0.0,0.0,87,0.00,,,0.00,VWS V13.01,2013-05-07 06:15:00,
2013-05-07 01:20:00,52.1,48.4,30.01,East,91,0.0,0.0,87,0.00,,,0.00,VWS V13.01,2013-05-07 06:20:00,
2013-05-07 01:25:00,52.1,48.7,30.01,South,173,2.2,2.2,88,0.00,,,0.00,VWS V13.01,2013-05-07 06:25:00,
2013-05-07 01:30:00,52.5,49.4,30.01,SE,135,2.2,2.2,89,0.00,,,0.00,VWS V13.01,2013-05-07 06:30:00,
2013-05-07 01:35:00,52.5,49.4,30.01,SE,135,0.0,0.0,89,0.00,,,0.00,VWS V13.01,2013-05-07 06:35:00,
2013-05-07 01:40:00,52.9,49.4,30.01,SE,135,0.0,0.0,88,0.00,,,0.00,VWS V13.01,2013-05-07 06:40:00,
2013-05-07 01:45:00,53.2,49.2,30.01,West,275,0.0,2.2,86,0.00,,,0.00,VWS V13.01,2013-05-07 06:45:00,
2013-05-07 01:50:00,52.9,48.2,30.01,South,181,4.0,4.0,84,0.00,,,0.00,VWS V13.01,2013-05-07 06:50:00,
2013-05-07 01:55:00,52.3,48.3,30.01,SSE,164,0.0,0.0,86,0.00,,,0.00,VWS V13.01,2013-05-07 06:55:00,
2013-05-07 02:00:00,52.0,47.9,30.01,SSE,164,0.0,0.0,86,0.00,,,0.00,VWS V13.01,2013-05-07 07:00:00,
2013-05-07 02:05:00,51.8,48.7,30.01,SSE,164,0.0,0.0,89,0.00,,,0.00,VWS V13.01,2013-05-07 07:05:00,
2013-05-07 02:10:00,51.6,49.1,30.01,SSE,164,0.0,0.0,91,0.00,,,0.00,VWS V13.01,2013-05-07 07:10:00,
2013-05-07 02:15:00,51.4,48.9,29.98,SSE,164,0.0,0.0,91,0.00,,,0.00,VWS V13.01,2013-05-07 07:15:00,
2013-05-07 02:20:00,51.2,49.0,29.98,SSE,164,0.0,0.0,92,0.00,,,0.00,VWS V13.01,2013-05-07 07:20:00,
2013-05-07 02:25:00,51.1,48.8,29.98,SSE,164,0.0,0.0,92,0.00,,,0.00,VWS V13.01,2013-05-07 07:25:00,
2013-05-07 02:30:00,50.9,49.2,29.98,East,90,0.0,0.0,94,0.00,,,0.00,VWS V13.01,2013-05-07 07:30:00,
2013-05-07 02:35:00,50.7,49.0,29.98,NE,48,0.0,0.0,94,0.00,,,0.00,VWS V13.01,2013-05-07 07:35:00,
2013-05-07 02:40:00,50.3,49.0,29.98,NE,46,3.1,4.0,95,0.00,,,0.00,VWS V13.01,2013-05-07 07:40:00,
2013-05-07 02:45:00,50.3,49.2,29.98,NE,46,0.0,0.0,96,0.00,,,0.00,VWS V13.01,2013-05-07 07:45:00,
2013-05-07 02:50:00,50.3,49.2,29.98,NE,46,0.0,0.0,96,0.00,,,0.00,VWS V13.01,2013-05-07 07:50:00,
2013-05-07 02:55:00,50.0,48.6,29.98,West,259,0.0,0.0,95,0.00,,,0.00,VWS V13.01,2013-05-07 07:55:00,
2013-05-07 03:00:00,49.6,48.2,29.98,South,181,3.6,3.6,95,0.00,,,0.00,VWS V13.01,2013-05-07 08:00:00,
2013-05-07 03:05:00,49.3,47.9,29.98,South,170,2.7,4.0,95,0.00,,,0.00,VWS V13.01,2013-05-07 08:05:00,
2013-05-07 11:50:00,69.8,52.4,30.04,South,188,3.6,4.0,54,0.00,,,0.00,VWS V13.01,2013-05-07 16:50:00,
2013-05-07 11:55:00,70.0,52.6,30.04,SSE,162,6.3,6.3,54,0.00,,,0.00,VWS V13.01,2013-05-07 16:55:00,
2013-05-07 12:00:00,70.1,52.2,30.04,WSW,242,4.0,6.7,53,0.00,,,0.00,VWS V13.01,2013-05-07 17:00:00,
2013-05-07 12:05:00,70.5,53.1,30.04,WSW,243,4.9,4.9,54,0.00,,,0.00,VWS V13.01,2013-05-07 17:05:00,
2013-05-07 12:10:00,70.9,53.4,30.04,SW,220,5.4,8.1,54,0.00,,,0.00,VWS V13.01,2013-05-07 17:10:00,
2013-05-07 12:15:00,71.4,53.9,30.04,SSW,200,5.4,5.8,54,0.00,,,0.00,VWS V13.01,2013-05-07 17:15:00,
2013-05-07 12:20:00,71.4,53.4,30.04,South,184,6.3,6.3,53,0.00,,,0.00,VWS V13.01,2013-05-07 17:20:00,
2013-05-07 12:25:00,71.8,53.7,30.04,WSW,247,3.6,3.6,53,0.00,,,0.00,VWS V13.01,2013-05-07 17:25:00,
2013-05-07 12:30:00,72.1,53.5,30.01,WSW,244,3.6,3.6,52,0.00,,,0.00,VWS V13.01,2013-05-07 17:30:00,
2013-05-07 12:35:00,72.7,54.0,30.01,SW,217,3.1,3.1,52,0.00,,,0.00,VWS V13.01,2013-05-07 17:35:00,
2013-05-07 12:40:00,72.7,53.5,30.01,SW,219,4.0,4.9,51,0.00,,,0.00,VWS V13.01,2013-05-07 17:40:00,
2013-05-07 12:45:00,72.7,54.0,30.01,SSW,193,3.6,4.9,52,0.00,,,0.00,VWS V13.01,2013-05-07 17:45:00,
2013-05-07 12:50:00,72.8,54.7,30.01,SW,226,4.5,4.5,53,0.00,,,0.00,VWS V13.01,2013-05-07 17:50:00,
2013-05-07 12:55:00,73.0,54.4,30.01,SW,231,5.4,5.4,52,0.00,,,0.00,VWS V13.01,2013-05-07 17:55:00,
2013-05-07 13:00:00,73.2,54.5,30.01,SSE,155,3.1,3.1,52,0.00,,,0.00,VWS V13.01,2013-05-07 18:00:00,
2013-05-07 13:05:00,72.8,54.2,30.01,South,178,4.0,5.4,52,0.00,,,0.00,VWS V13.01,2013-05-07 18:05:00,
2013-05-07 13:10:00,72.5,53.3,30.01,WSW,247,4.9,5.4,51,0.00,,,0.00,VWS V13.01,2013-05-07 18:10:00,
2013-05-07 13:14:00,72.7,54.0,30.01,South,183,4.9,4.9,52,0.00,,,0.00,VWS V13.01,2013-05-07 18:14:00,
2013-05-07 13:19:00,72.3,53.7,30.01,SW,221,5.4,5.4,52,0.00,,,0.00,VWS V13.01,2013-05-07 18:19:00,
2013-05-07 13:24:00,71.9,53.4,30.01,SSW,200,4.0,5.8,52,0.00,,,0.00,VWS V13.01,2013-05-07 18:24:00,
2013-05-07 13:29:00,71.9,52.8,30.01,South,184,5.8,5.8,51,0.00,,,0.00,VWS V13.01,2013-05-07 18:29:00,
2013-05-07 13:34:00,72.1,53.5,30.01,SSW,204,5.4,5.4,52,0.00,,,0.00,VWS V13.01,2013-05-07 18:34:00,
2013-05-07 13:39:00,72.1,53.0,30.01,South,184,5.4,6.3,51,0.00,,,0.00,VWS V13.01,2013-05-07 18:39:00,
2013-05-07 13:44:00,72.3,53.7,30.01,SSW,200,6.3,6.3,52,0.00,,,0.00,VWS V13.01,2013-05-07 18:44:00,
2013-05-07 13:49:00,72.7,53.5,30.01,SSW,199,5.8,5.8,51,0.00,,,0.00,VWS V13.01,2013-05-07 18:49:00,
2013-05-07 13:54:00,73.0,52.8,30.01,SSE,150,3.6,3.6,49,0.00,,,0.00,VWS V13.01,2013-05-07 18:54:00,
2013-05-07 13:59:00,73.6,54.3,30.01,South,177,5.4,5.4,51,0.00,,,0.00,VWS V13.01,2013-05-07 18:59:00,
2013-05-07 14:04:00,73.7,54.5,30.01,SW,236,6.7,6.7,51,0.00,,,0.00,VWS V13.01,2013-05-07 19:04:00,
2013-05-07 14:09:00,74.5,55.2,30.01,South,184,3.1,3.1,51,0.00,,,0.00,VWS V13.01,2013-05-07 19:09:00,
2013-05-07 14:14:00,74.8,54.4,29.98,West,261,4.0,4.0,49,0.00,,,0.00,VWS V13.01,2013-05-07 19:14:00,
2013-05-07 14:19:00,74.3,52.2,29.98,SE,143,3.6,4.0,46,0.00,,,0.00,VWS V13.01,2013-05-07 19:19:00,
2013-05-07 14:24:00,73.9,53.0,29.98,SSE,147,2.7,2.7,48,0.00,,,0.00,VWS V13.01,2013-05-07 19:24:00,
2013-05-07 14:29:00,74.3,52.2,30.01,SW,226,5.4,6.3,46,0.00,,,0.00,VWS V13.01,2013-05-07 19:29:00,
2013-05-07 14:34:00,74.3,52.8,30.01,SE,143,4.0,5.8,47,0.00,,,0.00,VWS V13.01,2013-05-07 19:34:00,
2013-05-07 14:39:00,74.6,55.3,30.01,SW,235,6.3,6.3,51,0.00,,,0.00,VWS V13.01,2013-05-07 19:39:00,
2013-05-07 14:44:00,74.5,52.9,30.01,SW,222,2.7,3.1,47,0.00,,,0.00,VWS V13.01,2013-05-07 19:44:00,
2013-05-07 14:49:00,74.8,53.3,30.01,South,172,3.6,4.0,47,0.00,,,0.00,VWS V13.01,2013-05-07 19:49:00,
2013-05-07 14:54:00,74.8,53.3,30.01,SW,223,2.7,6.3,47,0.00,,,0.00,VWS V13.01,2013-05-07 19:54:00,
2013-05-07 14:59:00,74.8,53.3,29.98,SSE,151,5.8,6.3,47,0.00,,,0.00,VWS V13.01,2013-05-07 19:59:00,
2013-05-07 15:04:00,74.6,53.1,29.98,SW,235,2.7,2.7,47,0.00,,,0.00,VWS V13.01,2013-05-07 20:04:00,
2013-05-07 15:09:00,74.6,53.1,29.98,South,190,4.0,7.6,47,0.00,,,0.00,VWS V13.01,2013-05-07 20:09:00,
2013-05-07 15:14:00,74.3,53.3,29.98,SSE,167,5.4,5.4,48,0.00,,,0.00,VWS V13.01,2013-05-07 20:14:00,
2013-05-07 15:19:00,73.9,52.4,29.98,WSW,241,5.4,6.3,47,0.00,,,0.00,VWS V13.01,2013-05-07 20:19:00,
2013-05-07 15:24:00,73.7,53.4,29.98,SE,143,4.0,4.9,49,0.00,,,0.00,VWS V13.01,2013-05-07 20:24:00,
2013-05-07 15:29:00,73.6,52.1,29.98,SSE,162,4.0,5.4,47,0.00,,,0.00,VWS V13.01,2013-05-07 20:29:00,
2013-05-07 15:34:00,73.6,52.1,29.98,South,178,5.4,5.4,47,0.00,,,0.00,VWS V13.01,2013-05-07 20:34:00,
2013-05-07 15:39:00,73.6,53.2,29.98,SSW,192,3.1,4.0,49,0.00,,,0.00,VWS V13.01,2013-05-07 20:39:00,
2013-05-07 15:44:00,73.6,52.1,29.98,SSW,192,5.8,8.1,47,0.00,,,0.00,VWS V13.01,2013-05-07 20:44:00,
2013-05-07 15:49:00,73.2,50.6,29.98,South,184,3.6,5.8,45,0.00,,,0.00,VWS V13.01,2013-05-07 20:49:00,
2013-05-07 15:54:00,73.2,52.4,29.98,SSE,147,3.6,5.4,48,0.00,,,0.00,VWS V13.01,2013-05-07 20:54:00,
2013-05-07 15:59:00,73.2,51.8,29.98,South,174,5.8,7.6,47,0.00,,,0.00,VWS V13.01,2013-05-07 20:59:00,
2013-05-07 16:04:00,73.7,52.8,29.98,SSW,196,4.0,6.3,48,0.00,,,0.00,VWS V13.01,2013-05-07 21:04:00,
2013-05-07 16:09:00,74.3,52.2,29.98,WSW,242,3.6,8.1,46,0.00,,,0.00,VWS V13.01,2013-05-07 21:09:00,
2013-05-07 16:14:00,74.5,51.8,29.98,SSE,159,2.7,3.6,45,0.00,,,0.00,VWS V13.01,2013-05-07 21:14:00,
2013-05-07 16:19:00,74.6,51.9,29.98,SW,226,4.9,6.3,45,0.00,,,0.00,VWS V13.01,2013-05-07 21:19:00,
2013-05-07 16:24:00,75.0,52.8,29.98,South,171,3.6,5.8,46,0.00,,,0.00,VWS V13.01,2013-05-07 21:24:00,
2013-05-07 16:29:00,75.4,51.3,29.95,West,271,2.7,4.0,43,0.00,,,0.00,VWS V13.01,2013-05-07 21:29:00,
2013-05-07 16:34:00,75.5,53.3,29.95,SSE,147,3.1,3.1,46,0.00,,,0.00,VWS V13.01,2013-05-07 21:34:00,
2013-05-07 16:39:00,76.1,52.6,29.95,West,260,6.3,6.3,44,0.00,,,0.00,VWS V13.01,2013-05-07 21:39:00,
2013-05-07 16:44:00,76.1,52.6,29.95,SW,220,3.6,5.4,44,0.00,,,0.00,VWS V13.01,2013-05-07 21:44:00,
2013-05-07 16:49:00,76.1,52.0,29.95,WSW,242,2.7,4.0,43,0.00,,,0.00,VWS V13.01,2013-05-07 21:49:00,
2013-05-07 16:54:00,76.3,52.2,29.95,South,190,3.1,4.0,43,0.00,,,0.00,VWS V13.01,2013-05-07 21:54:00,
2013-05-07 16:59:00,76.1,52.0,29.95,SSE,147,3.6,4.9,43,0.00,,,0.00,VWS V13.01,2013-05-07 21:59:00,
2013-05-07 17:04:00,76.1,52.0,29.95,South,183,4.0,4.0,43,0.00,,,0.00,VWS V13.01,2013-05-07 22:04:00,
2013-05-07 17:09:00,75.9,52.5,29.95,WSW,246,3.6,4.0,44,0.00,,,0.00,VWS V13.01,2013-05-07 22:09:00,
2013-05-07 17:14:00,75.9,53.1,29.95,SW,233,2.7,4.0,45,0.00,,,0.00,VWS V13.01,2013-05-07 22:14:00,
2013-05-07 17:19:00,76.4,52.9,29.95,West,259,3.1,3.6,44,0.00,,,0.00,VWS V13.01,2013-05-07 22:19:00,
2013-05-07 17:24:00,76.1,53.2,29.95,WSW,250,3.6,3.6,45,0.00,,,0.00,VWS V13.01,2013-05-07 22:24:00,
2013-05-07 17:29:00,76.4,52.3,29.95,South,170,2.7,4.0,43,0.00,,,0.00,VWS V13.01,2013-05-07 22:29:00,
2013-05-07 17:34:00,76.1,52.0,29.95,SSE,162,5.4,6.3,43,0.00,,,0.00,VWS V13.01,2013-05-07 22:34:00,
2013-05-07 17:39:00,75.7,52.3,29.95,SSE,158,4.0,4.0,44,0.00,,,0.00,VWS V13.01,2013-05-07 22:39:00,
2013-05-07 17:44:00,75.7,52.3,29.95,SSE,155,0.0,3.1,44,0.00,,,0.00,VWS V13.01,2013-05-07 22:44:00,
2013-05-07 17:49:00,76.1,52.0,29.95,SSE,161,4.0,4.5,43,0.00,,,0.00,VWS V13.01,2013-05-07 22:49:00,
2013-05-07 17:54:00,75.9,51.8,29.95,South,186,2.7,3.6,43,0.00,,,0.00,VWS V13.01,2013-05-07 22:54:00,
2013-05-07 17:59:00,76.1,52.6,29.95,SSW,193,2.2,2.7,44,0.00,,,0.00,VWS V13.01,2013-05-07 22:59:00,
2013-05-07 18:04:00,76.3,51.5,29.95,South,181,3.6,3.6,42,0.00,,,0.00,VWS V13.01,2013-05-07 23:04:00,
2013-05-07 18:09:00,76.1,52.0,29.95,SSW,198,2.2,2.7,43,0.00,,,0.00,VWS V13.01,2013-05-07 23:09:00,
2013-05-07 18:14:00,75.9,51.8,29.95,South,175,2.7,2.7,43,0.00,,,0.00,VWS V13.01,2013-05-07 23:14:00,
2013-05-07 18:19:00,75.7,51.7,29.95,WSW,241,2.7,2.7,43,0.00,,,0.00,VWS V13.01,2013-05-07 23:19:00,
2013-05-07 18:24:00,75.9,51.2,29.95,West,273,0.0,2.2,42,0.00,,,0.00,VWS V13.01,2013-05-07 23:24:00,
2013-05-07 18:29:00,76.3,52.8,29.95,WSW,246,2.7,2.7,44,0.00,,,0.00,VWS V13.01,2013-05-07 23:29:00,
2013-05-07 18:34:00,76.1,52.0,29.95,South,188,0.0,2.2,43,0.00,,,0.00,VWS V13.01,2013-05-07 23:34:00,
2013-05-07 18:39:00,75.9,51.8,29.95,South,184,0.0,0.0,43,0.00,,,0.00,VWS V13.01,2013-05-07 23:39:00,
2013-05-07 18:44:00,75.9,51.8,29.95,South,182,0.0,0.0,43,0.00,,,0.00,VWS V13.01,2013-05-07 23:44:00,
2013-05-07 18:49:00,75.5,51.5,29.95,South,180,0.0,0.0,43,0.00,,,0.00,VWS V13.01,2013-05-07 23:49:00,
2013-05-07 18:54:00,75.4,52.0,29.95,South,183,0.0,0.0,44,0.00,,,0.00,VWS V13.01,2013-05-07 23:54:00,
2013-05-07 18:59:00,75.2,51.8,29.95,ESE,122,2.2,2.7,44,0.00,,,0.00,VWS V13.01,2013-05-07 23:59:00,
2013-05-07 19:03:00,75.0,51.6,29.95,SE,128,0.0,2.7,44,0.00,,,0.00,VWS V13.01,2013-05-08 00:03:00,
2013-05-07 19:08:00,75.0,51.6,29.95,South,177,3.6,3.6,44,0.00,,,0.00,VWS V13.01,2013-05-08 00:08:00,
2013-05-07 19:13:00,74.5,51.8,29.95,SE,139,0.0,0.0,45,0.00,,,0.00,VWS V13.01,2013-05-08 00:13:00,
2013-05-07 19:18:00,74.5,51.8,29.95,SE,139,0.0,0.0,45,0.00,,,0.00,VWS V13.01,2013-05-08 00:18:00,
2013-05-07 19:23:00,74.1,51.4,29.95,SE,139,0.0,0.0,45,0.00,,,0.00,VWS V13.01,2013-05-08 00:23:00,
2013-05-07 19:28:00,74.1,51.4,29.95,SE,139,0.0,0.0,45,0.00,,,0.00,VWS V13.01,2013-05-08 00:28:00,
2013-05-07 19:33:00,73.7,51.1,29.95,SE,139,0.0,0.0,45,0.00,,,0.00,VWS V13.01,2013-05-08 00:33:00,
2013-05-07 19:38:00,73.7,51.7,29.95,SE,139,0.0,0.0,46,0.00,,,0.00,VWS V13.01,2013-05-08 00:38:00,
2013-05-07 19:43:00,73.6,52.1,29.95,SE,139,0.0,0.0,47,0.00,,,0.00,VWS V13.01,2013-05-08 00:43:00,
2013-05-07 19:48:00,73.0,52.2,29.95,SE,139,0.0,0.0,48,0.00,,,0.00,VWS V13.01,2013-05-08 00:48:00,
2013-05-07 19:53:00,72.3,51.5,29.95,SE,139,0.0,0.0,48,0.00,,,0.00,VWS V13.01,2013-05-08 00:53:00,
2013-05-07 19:58:00,71.9,52.3,29.95,SE,139,0.0,0.0,50,0.00,,,0.00,VWS V13.01,2013-05-08 00:58:00,
2013-05-07 20:03:00,71.6,52.5,29.95,SE,139,0.0,0.0,51,0.00,,,0.00,VWS V13.01,2013-05-08 01:03:00,
2013-05-07 20:08:00,71.0,52.5,29.95,SE,139,0.0,0.0,52,0.00,,,0.00,VWS V13.01,2013-05-08 01:08:00,
2013-05-07 20:13:00,70.5,52.6,29.95,SE,139,0.0,0.0,53,0.00,,,0.00,VWS V13.01,2013-05-08 01:13:00,
2013-05-07 20:18:00,70.0,52.6,29.95,SE,139,0.0,0.0,54,0.00,,,0.00,VWS V13.01,2013-05-08 01:18:00,
2013-05-07 20:23:00,69.2,52.4,29.95,SE,139,0.0,0.0,55,0.00,,,0.00,VWS V13.01,2013-05-08 01:23:00,
2013-05-07 20:28:00,68.5,52.2,29.95,SE,139,0.0,0.0,56,0.00,,,0.00,VWS V13.01,2013-05-08 01:28:00,
2013-05-07 20:33:00,67.8,52.5,29.95,SE,139,0.0,0.0,58,0.00,,,0.00,VWS V13.01,2013-05-08 01:33:00,
2013-05-07 20:38:00,66.9,52.6,29.95,SE,139,0.0,0.0,60,0.00,,,0.00,VWS V13.01,2013-05-08 01:38:00,
2013-05-07 20:43:00,66.4,53.0,29.95,SE,139,0.0,0.0,62,0.00,,,0.00,VWS V13.01,2013-05-08 01:43:00,
2013-05-07 20:48:00,65.6,53.6,29.95,SE,139,0.0,0.0,65,0.00,,,0.00,VWS V13.01,2013-05-08 01:48:00,
2013-05-07 20:53:00,64.9,53.7,29.95,ESE,105,0.0,0.0,67,0.00,,,0.00,VWS V13.01,2013-05-08 01:53:00,
2013-05-07 20:58:00,64.4,52.8,29.95,ESE,105,0.0,0.0,66,0.00,,,0.00,VWS V13.01,2013-05-08 01:58:00,
2013-05-07 21:03:00,64.0,53.7,29.95,ESE,105,0.0,0.0,69,0.00,,,0.00,VWS V13.01,2013-05-08 02:03:00,
2013-05-07 21:08:00,63.7,54.1,29.95,ESE,105,0.0,0.0,71,0.00,,,0.00,VWS V13.01,2013-05-08 02:08:00,
2013-05-07 21:13:00,63.1,54.3,29.95,ESE,105,0.0,0.0,73,0.00,,,0.00,VWS V13.01,2013-05-08 02:13:00,
2013-05-07 21:18:00,62.6,53.8,29.98,ESE,105,0.0,0.0,73,0.00,,,0.00,VWS V13.01,2013-05-08 02:18:00,
2013-05-07 21:23:00,62.4,54.0,29.98,ESE,105,0.0,0.0,74,0.00,,,0.00,VWS V13.01,2013-05-08 02:23:00,
2013-05-07 21:28:00,62.0,54.0,29.98,ESE,104,0.0,0.0,75,0.00,,,0.00,VWS V13.01,2013-05-08 02:28:00,
2013-05-07 21:33:00,61.7,54.0,29.98,ESE,105,0.0,0.0,76,0.00,,,0.00,VWS V13.01,2013-05-08 02:33:00,
2013-05-07 21:38:00,61.1,54.2,29.98,East,87,0.0,0.0,78,0.00,,,0.00,VWS V13.01,2013-05-08 02:38:00,
2013-05-07 21:43:00,60.6,54.4,29.98,East,87,0.0,0.0,80,0.00,,,0.00,VWS V13.01,2013-05-08 02:43:00,
2013-05-07 21:48:00,60.2,54.7,29.98,East,87,0.0,0.0,82,0.00,,,0.00,VWS V13.01,2013-05-08 02:48:00,
2013-05-07 21:53:00,60.2,54.4,29.98,East,87,0.0,0.0,81,0.00,,,0.00,VWS V13.01,2013-05-08 02:53:00,
2013-05-07 21:58:00,60.1,53.9,29.98,East,81,0.0,0.0,80,0.00,,,0.00,VWS V13.01,2013-05-08 02:58:00,
2013-05-07 22:03:00,60.2,53.7,29.98,ENE,67,0.0,0.0,79,0.00,,,0.00,VWS V13.01,2013-05-08 03:03:00,
2013-05-07 22:08:00,59.9,53.7,29.98,ENE,67,0.0,0.0,80,0.00,,,0.00,VWS V13.01,2013-05-08 03:08:00,
2013-05-07 22:13:00,59.5,54.0,29.98,ENE,67,0.0,0.0,82,0.00,,,0.00,VWS V13.01,2013-05-08 03:13:00,
2013-05-07 22:18:00,59.2,54.3,29.98,ENE,67,0.0,0.0,84,0.00,,,0.00,VWS V13.01,2013-05-08 03:18:00,
2013-05-07 22:23:00,59.0,54.5,29.98,ENE,67,0.0,0.0,85,0.00,,,0.00,VWS V13.01,2013-05-08 03:23:00,
2013-05-07 22:28:00,58.8,54.6,29.98,ENE,67,0.0,0.0,86,0.00,,,0.00,VWS V13.01,2013-05-08 03:28:00,
2013-05-07 22:33:00,58.4,54.6,29.98,NE,55,0.0,0.0,87,0.00,,,0.00,VWS V13.01,2013-05-08 03:33:00,
2013-05-07 22:38:00,58.3,54.4,29.98,NE,55,0.0,0.0,87,0.00,,,0.00,VWS V13.01,2013-05-08 03:38:00,
2013-05-07 22:43:00,58.1,54.2,29.98,NE,55,0.0,0.0,87,0.00,,,0.00,VWS V13.01,2013-05-08 03:43:00,
2013-05-07 22:48:00,58.1,54.2,29.98,NE,55,0.0,0.0,87,0.00,,,0.00,VWS V13.01,2013-05-08 03:48:00,
2013-05-07 22:53:00,57.9,54.4,29.98,NE,55,0.0,0.0,88,0.00,,,0.00,VWS V13.01,2013-05-08 03:53:00,
2013-05-07 22:58:00,57.9,54.1,29.98,NE,55,0.0,0.0,87,0.00,,,0.00,VWS V13.01,2013-05-08 03:58:00,
2013-05-07 23:01:00,57.9,54.1,29.98,NE,55,0.0,0.0,87,0.00,,,0.00,VWS V13.01,2013-05-08 04:01:00,
2013-05-07 23:06:00,57.9,54.1,29.98,NE,55,0.0,0.0,87,0.00,,,0.00,VWS V13.01,2013-05-08 04:06:00,
2013-05-07 23:11:00,57.7,53.9,29.98,NE,55,0.0,0.0,87,0.00,,,0.00,VWS V13.01,2013-05-08 04:11:00,
2013-05-07 23:16:00,57.4,53.5,29.98,NE,55,0.0,0.0,87,0.00,,,0.00,VWS V13.01,2013-05-08 04:16:00,
2013-05-07 23:21:00,57.0,53.2,29.98,NE,55,0.0,0.0,87,0.00,,,0.00,VWS V13.01,2013-05-08 04:21:00,
2013-05-07 23:26:00,56.8,53.6,29.98,NE,55,0.0,0.0,89,0.00,,,0.00,VWS V13.01,2013-05-08 04:26:00,
2013-05-07 23:31:00,56.6,54.0,29.98,NE,55,0.0,0.0,91,0.00,,,0.00,VWS V13.01,2013-05-08 04:31:00,
2013-05-07 23:36:00,56.5,53.9,29.98,NE,55,0.0,0.0,91,0.00,,,0.00,VWS V13.01,2013-05-08 04:36:00,
2013-05-07 23:41:00,56.3,53.7,29.98,NE,55,0.0,0.0,91,0.00,,,0.00,VWS V13.01,2013-05-08 04:41:00,
2013-05-07 23:46:00,56.1,53.5,29.98,NE,55,0.0,0.0,91,0.00,,,0.00,VWS V13.01,2013-05-08 04:46:00,
2013-05-07 23:51:00,55.9,53.6,29.98,NE,55,0.0,0.0,92,0.00,,,0.00,VWS V13.01,2013-05-08 04:51:00,
2013-05-07 23:56:00,55.6,53.6,29.98,ENE,59,0.0,0.0,93,0.00,,,0.00,VWS V13.01,2013-05-08 04:56:00,